Weather in Tatsinskiy

Russia / Rostov Oblast     48°11′48″N   41°21′05″E
temp.,
°C
wind,
m/s
gust,
m/s
humid.,
%
clouds,
%
prec.,
mm/h
press.,
hPa
HPBL,
m
3 march, wed
wed300:00+1w81496100 1.5 1014767
03:00+1w71197100 3.4 1012581
06:000wnw61098100 1.8 1011517
09:00+1nnw71197100 2.4 1014709
12:00+2nw7107893 0.2 10161044
15:00+3nw7106896 0.6 10171379
18:00+1nw6117174 0.3 1019599
21:00−1nw5107937 0.3 1021473
4 march, thu
thu400:00−2wnw37780 0.0 1022272
03:00−2w47790 0.0 1023263
06:00−2wsw510770 0.0 1022309
09:00+1wsw813640 0.0 1021698
12:00+5wsw912520 0.0 10201137
15:00+6wsw913531 0.0 10171256
18:00+3sw715700 0.0 1016491
21:00+2sw817750 0.0 1015481
5 march, fri
fri500:00+2sw8188233 0.0 1014588
03:00+2sw8178866 0.0 1013640
06:00+2sw9188753 0.0 1013666
09:00+4wsw9158177 0.0 1013837
12:00+7wsw9127389 0.0 1013945
15:00+6wsw8117694 0.0 1013838
18:00+6wsw41080100 0.0 1013652
21:00+5sw61381100 0.0 1014561
6 march, sat
sat600:00+3sw61484100 0.0 1012576
03:00+3sw71588100 0.0 1011643
06:00+4sw71488100 0.0 1010618
09:00+5w61089100 0.0 1011686
12:00+3nnw4681100 0.0 1013538
15:00+2n4680100 0.1 1013622
18:00+1nne4680100 0.1 1014654
21:00−1nne4688100 0.4 1017474
7 march, sun
sun700:00−1nw2382100 0.0 1018126
03:00−2nw7117581 0.0 1020719
06:00−4nw695727 0.0 10211050
09:00−3nw694814 0.0 10231194
12:000w67410 0.0 10221288
15:00+2wsw710380 0.0 10201481
18:000wsw612480 0.0 1018544
21:00−2sw815656 0.0 1017748